ANIK F2

Last updated on Thu Jul 03 2025 00:02:44 GMT+0000 (Coordinated Universal Time)

1 28378U 04027A 25183.54455391 -.00000043 00000+0 00000+0 0 9992 2 28378 2.3870 84.0764 0005117 2.5337 279.1704 1.00272615 37759
UTC large
Height (km)
Speed (km/s)
/
Latitude / Longitude
Inclination (degrees)
Orbital Period (minutes)
Azimuth
Elevation
Range (km)
Doppler Factor

Next 0 passes for location: London (51.5072 / 0.1276)

Sorry there are no passes over London.